Location: Dana
(41.8364°N, 106.7042°W)
Time: 03:21:58
(UTC+00:00)

ARIANE 6 FM1 Upper Stage - Visible Passes

Search period start: 15 April 2026 00:00
Search period end: 25 April 2026 00:00
Orbit: 524 x 604 km, 62.0° (Epoch: 14 April)

Date Brightness Start Highest point End Pass type
(mag) Time Alt. Az. Time Alt. Az. Time Alt. Az.
15 Apr 4.7 02:16:08 10° WSW 02:19:52 31° NW 02:23:32 10° NNE visible
16 Apr 5.2 02:16:14 10° W 02:19:36 23° NW 02:22:54 10° NNE visible
17 Apr 5.4 02:16:30 10° W 02:19:22 18° NW 02:22:11 10° N visible
18 Apr 5.6 02:16:59 10° WNW 02:19:10 14° NW 02:21:20 10° N visible
22 Apr 5.6 05:39:50 10° NNE 05:40:28 11° NNE 05:40:28 11° NNE visible
23 Apr 5.4 05:38:42 10° N 05:39:52 13° NNE 05:39:52 13° NNE visible
24 Apr 5.3 05:37:51 10° N 05:39:17 16° N 05:39:17 16° N visible
